Location: Saint-Maurice-d�Ard�che
(44.5216°N, 4.4002°E)
Time: 07:46:24
(UTC+00:00)

Landsat 7 - Visible Passes

Search period start: 11 August 2020 00:00
Search period end: 21 August 2020 00:00
Orbit: 701 x 703 km, 98.1° (Epoch: 10 August)

Date Brightness Start Highest point End Pass type
(mag) Time Alt. Az. Time Alt. Az. Time Alt. Az.
11 Aug 4.7 20:01:04 16° ESE 20:04:13 33° ENE 20:08:27 10° N visible
11 Aug 5.4 21:39:57 21° SW 21:41:57 29° W 21:46:07 10° NW visible
12 Aug 3.7 20:44:21 30° SSE 20:46:44 83° ENE 20:51:32 10° NNW visible
12 Aug 6.4 22:23:37 10° WSW 22:25:06 11° W 22:26:35 10° WNW visible
13 Aug 5.0 19:48:45 13° ESE 19:51:58 26° ENE 19:55:52 10° N visible
13 Aug 4.9 21:27:38 27° SW 21:29:32 38° W 21:33:59 10° NNW visible
14 Aug 3.9 20:32:03 29° SE 20:34:25 63° ENE 20:39:08 10° N visible
14 Aug 6.1 22:10:56 13° WSW 22:12:36 15° W 22:15:21 10° NW visible
15 Aug 5.3 19:36:27 11° ESE 19:39:45 20° ENE 19:43:13 10° NNE visible
15 Aug 4.5 21:15:20 33° SSW 21:17:08 50° W 21:21:47 10° NNW visible
16 Aug 4.2 20:19:44 26° SE 20:22:07 48° ENE 20:26:42 10° N visible
16 Aug 5.8 21:58:37 17° WSW 22:00:07 20° W 22:03:36 10° NW visible
17 Aug 5.6 19:24:39 10° E 19:27:32 16° ENE 19:30:25 10° NNE visible
17 Aug 4.0 21:03:02 38° S 21:04:46 66° W 21:09:31 10° NNW visible
18 Aug 4.5 20:07:27 22° ESE 20:09:50 37° ENE 20:14:12 10° N visible
18 Aug 5.5 21:46:20 22° WSW 21:47:40 26° W 21:51:38 10° NW visible
19 Aug 5.8 19:13:19 10° E 19:15:21 13° ENE 19:17:23 10° NNE visible
19 Aug 3.7 20:50:44 41° S 20:52:24 87° WSW 20:57:11 10° NNW visible
20 Aug 4.9 19:55:09 19° ESE 19:57:34 29° ENE 20:01:39 10° N visible
20 Aug 5.1 21:34:02 29° SW 21:35:14 33° W 21:39:33 10° NNW visible
